Tracking 23758 objects as of 26-Oct-2021
HD Live streaming from Space Station
objects crossing your sky now

COSMOS 1375 DEB

Track COSMOS 1375 DEB now!
10-day predictions


NORAD ID: 16203
Int'l Code: 1982-055E
Perigee: 895.7 km
Apogee: 983.1 km
Inclination: 65.8 °
Period: 103.7 minutes
Semi major axis: 7310 km
RCS: 0.1211 m2 (medium)
Launch date: June 6, 1982
Source: Commonwealth of Independent States (former USSR) (CIS)
Launch site: PLESETSK MISSILE AND SPACE COMPLEX (PKMTR)

Note: This is SATELLITE DEBRIS
aabbcc
Your satellite tracking list
Your tracking list is empty




NASA's NSSDC Master Catalog

Two Line Element Set (TLE):
1 16203U 82055E   21299.25671514 -.00000084  00000-0 -72555-6 0  9990
2 16203  65.8336 222.8224 0059808 134.1847  21.0813 13.88969508995303
Source of the keplerian elements: AFSPC